THOR ABLESTAR DEB *, 19961

Orbit data source: Space-Track

THOR ABLESTAR DEB *, 19961 is space debris in LEO originally from a launch on Thu, 29 Jun 1961 UTC launched from the Air Force Eastern Test Range (AFETR). Debris objects in space refer to the collection of defunct objects orbiting the Earth. Examples of debris include non-operational satellites, rocket bodies, and fragments generated from explosions, collisions, or faulty payload assembly.

Loading next visibility...
Identifier
19961, 1961-015MJ
Orbit
LEO
Country
Flag of USUS
Related business
Manufacturer
Unknown
Mission
Spacecraft
Bus & Motor
Unknown
Mass
Unknown
Launch date (UTC)
1961-06-29 (65 years ago)
Launch vehicle
Unknown
Launch site
Air Force Eastern Test Range (AFETR)
Object type
Payload
Rocket body
Debris
Shape & HBR
Unknown shape, 0.1 m
Radar Cross Section
Medium (>0.1 m² and <1 m²)

Expand to show TLE details & history
Last TLE update: 15 hours ago

TLE from 15 hours ago
0 THOR ABLESTAR DEB *
1 19961U 61015MJ  26235.90164729  .00000110  00000-0  17208-3 0  9998
2 19961  65.6423  37.2592 0162650 328.8895 183.9763 13.78693872949851
Epoch: 2026-08-23T21:38Z
TLE epoch observation values (Epoch: 2026-08-23T21:38:22.325Z)
Latitude
24.70402°
Longitude
-91.4836°
Altitude
1,089.807 km
Speed
7.25 km/s
True Right ascension
13h 41m 12s
True Declination
24° 34' 46"
Sunlit
Object was in daylight at epoch
Visualization orbit readout
Latitude
Unknown
Longitude
Unknown
Altitude
Unknown
Speed
Unknown
Apparent Right ascension
Unknown
Apparent Declination
Unknown
Sunlit
N/A
Visualization observer readout
Local Sidereal Time
04:10:53
Azimuth
Unknown
Elevation
Unknown
Doppler factor
Unknown
Orbital elements
Apogee altitude
1,086.529 km
Perigee altitude
847.59 km
Semi-major axis
7,345.196 km
Eccentricity
0.01627
Inclination
65.6423°
RAAN
37.2592°
Arg. of periapsis
328.8895°
True anomaly
183.84963°
Mean anomaly
183.9763°
Eccentric anomaly
183.91271°
Mean motion
3.44777 °/min
Orbital period
104.42 mins
BSTAR
0.00017208
Loading maneuver chart data...
Computing Atmospheric mass density...
Loading historical data...
Loading historical data...
Loading historical data...
Loading historical data...
Loading historical data...
Loading historical data...
Loading historical data...

Documentation

Showing up to 5 results
|